datetime,release volume
1963-12-13,17.85124
1963-12-14,17.85124
1963-12-15,17.85124
1963-12-16,15.86777
1963-12-17,15.86777
1963-12-18,15.86777
1963-12-19,13.8843
1963-12-20,9.91736
1963-12-21,9.91736
1963-12-22,9.91736
1963-12-23,9.91736
1963-12-24,9.91736
1963-12-25,9.91736
1963-12-26,9.91736
1963-12-27,9.91736
1963-12-28,9.91736
1963-12-29,9.91736
1963-12-30,9.91736
1963-12-31,13.8843
1964-01-01,13.8843
1964-01-02,13.8843
1964-01-03,9.91736
1964-01-04,9.91736
1964-01-05,9.91736
1964-01-06,7.93388
1964-01-07,7.93388
1964-01-08,7.93388
1964-01-09,7.93388
1964-01-10,7.93388
1964-01-11,7.93388
1964-01-12,7.93388
1964-01-13,7.93388
1964-01-14,7.93388
1964-01-15,7.93388
1964-01-16,7.93388
1964-01-17,5.95041
1964-01-18,5.95041
1964-01-19,5.95041
1964-01-20,5.95041
1964-01-21,5.95041
1964-01-22,5.95041
1964-01-23,5.95041
1964-01-24,5.95041
1964-01-25,5.95041
1964-01-26,5.95041
1964-01-27,5.95041
1964-01-28,5.95041
1964-01-29,5.95041
1964-01-30,5.95041
1964-01-31,5.95041
1964-02-01,5.95041
1964-02-02,5.95041
1964-02-03,5.95041
1964-02-04,5.95041
1964-02-05,5.95041
1964-02-06,5.95041
1964-02-07,5.95041
1964-02-08,5.95041
1964-02-09,5.95041
1964-02-10,5.95041
1964-02-11,5.95041
1964-02-12,5.95041
1964-02-13,5.95041
1964-02-14,5.95041
1964-02-15,5.95041
1964-02-16,5.95041
1964-02-17,5.95041
1964-02-18,5.95041
1964-02-19,7.93388
1964-02-20,9.91736
1964-02-21,9.91736
1964-02-22,9.91736
1964-02-23,9.91736
1964-02-24,9.91736
1964-02-25,9.91736
1964-02-26,9.91736
1964-02-27,9.91736
1964-02-28,9.91736
1964-02-29,9.91736
1964-03-01,9.91736
1964-03-02,9.91736
1964-03-03,9.91736
1964-03-04,9.91736
1964-03-05,9.91736
1964-03-06,9.91736
1964-03-07,9.91736
1964-03-08,9.91736
1964-03-09,9.91736
1964-03-10,9.91736
1964-03-11,9.91736
1964-03-12,9.91736
1964-03-13,11.90083
1964-03-14,11.90083
1964-03-15,11.90083
1964-03-16,11.90083
1964-03-17,11.90083
1964-03-18,11.90083
1964-03-19,11.90083
1964-03-20,5.95041
1964-03-21,5.95041
1964-03-22,5.95041
1964-03-23,5.95041
1964-03-24,5.95041
1964-03-25,5.95041
1964-03-26,5.95041
1964-03-27,5.95041
1964-03-28,0.0
1964-03-29,0.0
1964-03-30,0.0
1964-03-31,0.0
1964-04-01,0.0
1964-04-02,0.0
1964-04-03,0.0
1964-04-04,0.0
1964-04-05,0.0
1964-04-06,0.0
1964-04-07,0.0
1964-04-08,1.98347
1964-04-09,1.98347
1964-04-10,1.98347
1964-04-11,1.98347
1964-04-12,1.98347
1964-04-13,1.98347
1964-04-14,1.98347
1964-04-15,1.98347
1964-04-16,1.98347
1964-04-17,0.0
1964-04-18,0.0
1964-04-19,0.0
1964-04-20,0.0
1964-04-21,0.0
1964-04-22,0.0
1964-04-23,0.0
1964-04-24,0.0
1964-04-25,0.0
1964-04-26,0.0
1964-04-27,0.0
1964-04-28,0.0
1964-04-29,0.0
1964-04-30,3.96694
1964-05-01,7.93388
1964-05-02,7.93388
1964-05-03,7.93388
1964-05-04,5.95041
1964-05-05,5.95041
1964-05-06,5.95041
1964-05-07,5.95041
1964-05-08,5.95041
1964-05-09,5.95041
1964-05-10,5.95041
1964-05-11,23.80165
1964-05-12,67.43802
1964-05-13,99.17355
1964-05-14,99.17355
1964-05-15,192.39669
1964-05-16,339.17355
1964-05-17,366.94215
1964-05-18,370.90909
1964-05-19,376.8595
1964-05-20,388.76033
1964-05-21,396.69421
1964-05-22,396.69421
1964-05-23,396.69421
1964-05-24,396.69421
1964-05-25,438.34711
1964-05-26,495.86777
1964-05-27,495.86777
1964-05-28,495.86777
1964-05-29,495.86777
1964-05-30,495.86777
1964-05-31,487.93388
1964-06-01,466.1157
1964-06-02,394.71074
1964-06-03,366.94215
1964-06-04,416.52893
1964-06-05,416.52893
1964-06-06,416.52893
1964-06-07,416.52893
1964-06-08,424.46281
1964-06-09,420.49587
1964-06-10,388.76033
1964-06-11,388.76033
1964-06-12,388.76033
1964-06-13,388.76033
1964-06-14,388.76033
1964-06-15,376.8595
1964-06-16,396.69421
1964-06-17,396.69421
1964-06-18,396.69421
1964-06-19,384.79339
1964-06-20,376.8595
1964-06-21,376.8595
1964-06-22,376.8595
1964-06-23,362.97521
1964-06-24,343.1405
1964-06-25,343.1405
1964-06-26,307.43802
1964-06-27,287.60331
1964-06-28,287.60331
1964-06-29,275.70248
1964-06-30,257.85124
1964-07-01,257.85124
1964-07-02,249.91736
1964-07-03,238.01653
1964-07-04,238.01653
1964-07-05,238.01653
1964-07-06,226.1157
1964-07-07,210.24793
1964-07-08,210.24793
1964-07-09,210.24793
1964-07-10,210.24793
1964-07-11,210.24793
1964-07-12,210.24793
1964-07-13,214.21488
1964-07-14,206.28099
1964-07-15,200.33058
1964-07-16,200.33058
1964-07-17,196.36364
1964-07-18,196.36364
1964-07-19,196.36364
1964-07-20,196.36364
1964-07-21,198.34711
1964-07-22,202.31405
1964-07-23,196.36364
1964-07-24,194.38017
1964-07-25,194.38017
1964-07-26,194.38017
1964-07-27,190.41322
1964-07-28,182.47934
1964-07-29,182.47934
1964-07-30,182.47934
1964-07-31,182.47934
1964-08-01,182.47934
1964-08-02,182.47934
1964-08-03,188.42975
1964-08-04,198.34711
1964-08-05,188.42975
1964-08-06,168.59504
1964-08-07,168.59504
1964-08-08,168.59504
1964-08-09,168.59504
1964-08-10,162.64463
1964-08-11,154.71074
1964-08-12,126.94215
1964-08-13,19.83471
1964-08-14,19.83471
1964-08-15,19.83471
1964-08-16,19.83471
1964-08-17,101.15702
1964-08-18,130.90909
1964-08-19,126.94215
1964-08-20,126.94215
1964-08-21,126.94215
1964-08-22,126.94215
1964-08-23,126.94215
1964-08-24,128.92562
1964-08-25,130.90909
1964-08-26,130.90909
1964-08-27,130.90909
1964-08-28,130.90909
1964-08-29,130.90909
1964-08-30,130.90909
1964-08-31,144.79339
1964-09-01,168.59504
1964-09-02,168.59504
1964-09-03,168.59504
1964-09-04,168.59504
1964-09-05,168.59504
1964-09-06,168.59504
1964-09-07,168.59504
1964-09-08,180.49587
1964-09-09,186.44628
1964-09-10,186.44628
1964-09-11,186.44628
1964-09-12,186.44628
1964-09-13,186.44628
1964-09-14,156.69421
1964-09-15,109.09091
1964-09-16,109.09091
1964-09-17,109.09091
1964-09-18,109.09091
1964-09-19,109.09091
1964-09-20,109.09091
1964-09-21,105.12397
1964-09-22,99.17355
1964-09-23,99.17355
1964-09-24,99.17355
1964-09-25,99.17355
1964-09-26,99.17355
1964-09-27,99.17355
1964-09-28,95.20661
1964-09-29,93.22314
1964-09-30,93.22314
1964-10-01,93.22314
1964-10-02,93.22314
1964-10-03,93.22314
1964-10-04,93.22314
1964-10-05,75.3719
1964-10-06,41.65289
1964-10-07,39.66942
1964-10-08,29.75207
1964-10-09,29.75207
1964-10-10,29.75207
1964-10-11,29.75207
1964-10-12,29.75207
1964-10-13,29.75207
1964-10-14,29.75207
1964-10-15,29.75207
1964-10-16,29.75207
1964-10-17,29.75207
1964-10-18,31.73554
1964-10-19,37.68595
1964-10-20,37.68595
1964-10-21,37.68595
1964-10-22,37.68595
1964-10-23,37.68595
1964-10-24,37.68595
1964-10-25,37.68595
1964-10-26,37.68595
1964-10-27,37.68595
1964-10-28,37.68595
1964-10-29,37.68595
1964-10-30,37.68595
1964-10-31,37.68595
1964-11-01,37.68595
1964-11-02,37.68595
1964-11-03,37.68595
1964-11-04,37.68595
1964-11-05,37.68595
1964-11-06,37.68595
1964-11-07,37.68595
1964-11-08,37.68595
1964-11-09,37.68595
1964-11-10,37.68595
1964-11-11,37.68595
1964-11-12,37.68595
1964-11-13,21.81818
1964-11-14,19.83471
1964-11-15,17.85124
1964-11-16,17.85124
1964-11-17,17.85124
1964-11-18,17.85124
1964-11-19,17.85124
1964-11-20,17.85124
1964-11-21,17.85124
1964-11-22,17.85124
1964-11-23,17.85124
1964-11-24,17.85124
1964-11-25,17.85124
1964-11-26,17.85124
1964-11-27,17.85124
1964-11-28,17.85124
1964-11-29,17.85124
1964-11-30,17.85124
1964-12-01,21.81818
1964-12-02,39.66942
1964-12-03,51.57025
1964-12-04,69.42149
1964-12-05,69.42149
1964-12-06,69.42149
1964-12-07,69.42149
1964-12-08,69.42149
1964-12-09,69.42149
1964-12-10,57.52066
1964-12-11,17.85124
1964-12-12,17.85124
1964-12-13,17.85124
1964-12-14,17.85124
1964-12-15,17.85124
1964-12-16,17.85124
1964-12-17,17.85124
1964-12-18,17.85124
1964-12-19,17.85124
1964-12-20,17.85124
1964-12-21,17.85124
1964-12-22,17.85124
1964-12-23,17.85124
1964-12-24,17.85124
1964-12-25,17.85124
1964-12-26,17.85124
1964-12-27,17.85124
1964-12-28,17.85124
1964-12-29,17.85124
1964-12-30,17.85124
1964-12-31,17.85124
1965-01-01,17.85124
1965-01-02,17.85124
1965-01-03,17.85124
1965-01-04,17.85124
1965-01-05,17.85124
1965-01-06,17.85124
1965-01-07,17.85124
1965-01-08,17.85124
1965-01-09,17.85124
1965-01-10,17.85124
1965-01-11,17.85124
1965-01-12,17.85124
1965-01-13,17.85124
1965-01-14,17.85124
1965-01-15,17.85124
1965-01-16,17.85124
1965-01-17,17.85124
1965-01-18,17.85124
1965-01-19,17.85124
1965-01-20,17.85124
1965-01-21,17.85124
1965-01-22,17.85124
1965-01-23,17.85124
1965-01-24,17.85124
1965-01-25,17.85124
1965-01-26,17.85124
1965-01-27,17.85124
1965-01-28,17.85124
1965-01-29,17.85124
1965-01-30,17.85124
1965-01-31,17.85124
1965-02-01,17.85124
1965-02-02,17.85124
1965-02-03,17.85124
1965-02-04,17.85124
1965-02-05,17.85124
1965-02-06,17.85124
1965-02-07,17.85124
1965-02-08,17.85124
1965-02-09,17.85124
1965-02-10,17.85124
1965-02-11,17.85124
1965-02-12,17.85124
1965-02-13,17.85124
1965-02-14,17.85124
1965-02-15,17.85124
1965-02-16,17.85124
1965-02-17,17.85124
1965-02-18,17.85124
1965-02-19,17.85124
1965-02-20,17.85124
1965-02-21,17.85124
1965-02-22,17.85124
1965-02-23,17.85124
1965-02-24,17.85124
1965-02-25,17.85124
1965-02-26,17.85124
1965-02-27,17.85124
1965-02-28,17.85124
1965-03-01,17.85124
1965-03-02,17.85124
1965-03-03,17.85124
1965-03-04,17.85124
1965-03-05,17.85124
1965-03-06,17.85124
1965-03-07,17.85124
1965-03-08,17.85124
1965-03-09,17.85124
1965-03-10,17.85124
1965-03-11,17.85124
1965-03-12,17.85124
1965-03-13,17.85124
1965-03-14,17.85124
1965-03-15,17.85124
1965-03-16,17.85124
1965-03-17,17.85124
1965-03-18,17.85124
1965-03-19,17.85124
1965-03-20,17.85124
1965-03-21,17.85124
1965-03-22,17.85124
1965-03-23,17.85124
1965-03-24,17.85124
1965-03-25,17.85124
1965-03-26,17.85124
1965-03-27,17.85124
1965-03-28,17.85124
1965-03-29,17.85124
1965-03-30,17.85124
1965-03-31,17.85124
1965-04-01,7.93388
1965-04-02,7.93388
1965-04-03,7.93388
1965-04-04,7.93388
1965-04-05,7.93388
1965-04-06,7.93388
1965-04-07,7.93388
1965-04-08,7.93388
1965-04-09,7.93388
1965-04-10,7.93388
1965-04-11,7.93388
1965-04-12,7.93388
1965-04-13,7.93388
1965-04-14,7.93388
1965-04-15,7.93388
1965-04-16,7.93388
1965-04-17,7.93388
1965-04-18,7.93388
1965-04-19,7.93388
1965-04-20,7.93388
1965-04-21,7.93388
1965-04-22,7.93388
1965-04-23,7.93388
1965-04-24,7.93388
1965-04-25,7.93388
1965-04-26,3.96694
1965-04-27,0.0
1965-04-28,0.0
1965-04-29,0.0
1965-04-30,0.0
1965-05-01,0.0
1965-05-02,0.0
1965-05-03,0.0
1965-05-04,0.0
1965-05-05,0.0
1965-05-06,0.0
1965-05-07,0.0
1965-05-08,0.0
1965-05-09,0.0
1965-05-10,0.0
1965-05-11,0.0
1965-05-12,0.0
1965-05-13,0.0
1965-05-14,0.0
1965-05-15,9.91736
1965-05-16,9.91736
1965-05-17,9.91736
1965-05-18,9.91736
1965-05-19,9.91736
1965-05-20,9.91736
1965-05-21,79.33884
1965-05-22,59.50413
1965-05-23,59.50413
1965-05-24,99.17355
1965-05-25,138.84298
1965-05-26,396.69421
1965-05-27,396.69421
1965-05-28,396.69421
1965-05-29,366.94215
1965-05-30,366.94215
1965-05-31,366.94215
1965-06-01,366.94215
1965-06-02,396.69421
1965-06-03,396.69421
1965-06-04,370.90909
1965-06-05,396.69421
1965-06-06,396.69421
1965-06-07,462.14876
1965-06-08,476.03306
1965-06-09,476.03306
1965-06-10,476.03306
1965-06-11,476.03306
1965-06-12,476.03306
1965-06-13,476.03306
1965-06-14,710.08264
1965-06-15,892.56198
1965-06-16,1090.90909
1965-06-17,892.56198
1965-06-18,1090.90909
1965-06-19,1289.2562
1965-06-20,1729.58678
1965-06-21,1592.72727
1965-06-22,1328.92562
1965-06-23,858.84298
1965-06-24,1662.14876
1965-06-25,1521.32231
1965-06-26,876.69421
1965-06-27,610.90909
1965-06-28,595.04132
1965-06-29,694.21488
1965-06-30,1132.56198
1965-07-01,1459.83471
1965-07-02,1586.77686
1965-07-03,1388.42975
1965-07-04,1388.42975
1965-07-05,1388.42975
1965-07-06,950.08264
1965-07-07,866.77686
1965-07-08,714.04959
1965-07-09,694.21488
1965-07-10,694.21488
1965-07-11,595.04132
1965-07-12,872.72727
1965-07-13,952.06612
1965-07-14,952.06612
1965-07-15,862.80992
1965-07-16,942.14876
1965-07-17,852.89256
1965-07-18,763.63636
1965-07-19,571.23967
1965-07-20,0.0
1965-07-21,0.0
1965-07-22,0.0
1965-07-23,0.0
1965-07-24,0.0
1965-07-25,0.0
1965-07-26,0.0
1965-07-27,130.90909
1965-07-28,0.0
1965-07-29,0.0
1965-07-30,281.65289
1965-07-31,525.61983
1965-08-01,571.23967
1965-08-02,571.23967
1965-08-03,595.04132
1965-08-04,571.23967
1965-08-05,545.45455
1965-08-06,571.23967
1965-08-07,595.04132
1965-08-08,595.04132
1965-08-09,380.82645
1965-08-10,380.82645
1965-08-11,426.44628
1965-08-12,408.59504
1965-08-13,446.28099
1965-08-14,456.19835
1965-08-15,456.19835
1965-08-16,436.36364
1965-08-17,456.19835
1965-08-18,440.33058
1965-08-19,436.36364
1965-08-20,396.69421
1965-08-21,376.8595
1965-08-22,376.8595
1965-08-23,307.43802
1965-08-24,317.35537
1965-08-25,317.35537
1965-08-26,303.47107
1965-08-27,289.58678
1965-08-28,303.47107
1965-08-29,303.47107
1965-08-30,303.47107
1965-08-31,317.35537
1965-09-01,303.47107
1965-09-02,317.35537
1965-09-03,317.35537
1965-09-04,303.47107
1965-09-05,317.35537
1965-09-06,263.80165
1965-09-07,253.8843
1965-09-08,220.16529
1965-09-09,170.57851
1965-09-10,178.5124
1965-09-11,178.5124
1965-09-12,178.5124
1965-09-13,198.34711
1965-09-14,190.41322
1965-09-15,210.24793
1965-09-16,218.18182
1965-09-17,218.18182
1965-09-18,218.18182
1965-09-19,218.18182
1965-09-20,170.57851
1965-09-21,160.66116
1965-09-22,126.94215
1965-09-23,128.92562
1965-09-24,99.17355
1965-09-25,99.17355
1965-09-26,79.33884
1965-09-27,75.3719
1965-09-28,79.33884
1965-09-29,79.33884
1965-09-30,79.33884
1965-10-01,79.33884
1965-10-02,79.33884
1965-10-03,79.33884
1965-10-04,75.3719
1965-10-05,79.33884
1965-10-06,138.84298
1965-10-07,297.52066
1965-10-08,291.57025
1965-10-09,158.67769
1965-10-10,152.72727
1965-10-11,158.67769
1965-10-12,158.67769
1965-10-13,158.67769
1965-10-14,192.39669
1965-10-15,156.69421
1965-10-16,198.34711
1965-10-17,198.34711
1965-10-18,198.34711
1965-10-19,198.34711
1965-10-20,198.34711
1965-10-21,198.34711
1965-10-22,190.41322
1965-10-23,198.34711
1965-10-24,198.34711
1965-10-25,198.34711
1965-10-26,198.34711
1965-10-27,198.34711
1965-10-28,198.34711
1965-10-29,198.34711
1965-10-30,198.34711
1965-10-31,190.41322
1965-11-01,198.34711
1965-11-02,198.34711
1965-11-03,198.34711
1965-11-04,198.34711
1965-11-05,198.34711
1965-11-06,198.34711
1965-11-07,198.34711
1965-11-08,190.41322
1965-11-09,198.34711
1965-11-10,174.54545
1965-11-11,115.04132
1965-11-12,115.04132
1965-11-13,119.00826
1965-11-14,119.00826
1965-11-15,115.04132
1965-11-16,119.00826
1965-11-17,119.00826
1965-11-18,119.00826
1965-11-19,119.00826
1965-11-20,119.00826
1965-11-21,119.00826
1965-11-22,115.04132
1965-11-23,119.00826
1965-11-24,119.00826
1965-11-25,119.00826
1965-11-26,119.00826
1965-11-27,119.00826
1965-11-28,119.00826
1965-11-29,115.04132
1965-11-30,119.00826
1965-12-01,119.00826
1965-12-02,119.00826
1965-12-03,119.00826
1965-12-04,119.00826
1965-12-05,119.00826
1965-12-06,119.00826
1965-12-07,119.00826
1965-12-08,119.00826
1965-12-09,119.00826
1965-12-10,119.00826
1965-12-11,119.00826
1965-12-12,119.00826
1965-12-13,119.00826
1965-12-14,119.00826
1965-12-15,119.00826
1965-12-16,119.00826
1965-12-17,119.00826
1965-12-18,119.00826
1965-12-19,119.00826
1965-12-20,119.00826
1965-12-21,119.00826
1965-12-22,119.00826
1965-12-23,119.00826
1965-12-24,119.00826
1965-12-25,119.00826
1965-12-26,119.00826
1965-12-27,119.00826
1965-12-28,119.00826
1965-12-29,119.00826
1965-12-30,119.00826
1965-12-31,119.00826
1966-01-01,119.00826
1966-01-02,119.00826
1966-01-03,115.04132
1966-01-04,119.00826
1966-01-05,119.00826
1966-01-06,119.00826
1966-01-07,119.00826
1966-01-08,119.00826
1966-01-09,119.00826
1966-01-10,119.00826
1966-01-11,119.00826
1966-01-12,119.00826
1966-01-13,119.00826
1966-01-14,119.00826
1966-01-15,119.00826
1966-01-16,119.00826
1966-01-17,119.00826
1966-01-18,119.00826
1966-01-19,99.17355
1966-01-20,79.33884
1966-01-21,79.33884
1966-01-22,119.00826
1966-01-23,119.00826
1966-01-24,113.05785
1966-01-25,119.00826
1966-01-26,119.00826
1966-01-27,119.00826
1966-01-28,119.00826
1966-01-29,119.00826
1966-01-30,119.00826
1966-01-31,89.2562
1966-02-01,95.20661
1966-02-02,79.33884
1966-02-03,35.70248
1966-02-04,29.75207
1966-02-05,29.75207
1966-02-06,29.75207
1966-02-07,29.75207
1966-02-08,29.75207
1966-02-09,29.75207
1966-02-10,29.75207
1966-02-11,29.75207
1966-02-12,29.75207
1966-02-13,29.75207
1966-02-14,29.75207
1966-02-15,29.75207
1966-02-16,29.75207
1966-02-17,29.75207
1966-02-18,29.75207
1966-02-19,29.75207
1966-02-20,29.75207
1966-02-21,29.75207
1966-02-22,29.75207
1966-02-23,29.75207
1966-02-24,29.75207
1966-02-25,29.75207
1966-02-26,29.75207
1966-02-27,29.75207
1966-02-28,29.75207
1966-03-01,29.75207
1966-03-02,29.75207
1966-03-03,29.75207
1966-03-04,29.75207
1966-03-05,29.75207
1966-03-06,29.75207
1966-03-07,29.75207
1966-03-08,27.7686
1966-03-09,21.81818
1966-03-10,27.7686
1966-03-11,27.7686
1966-03-12,29.75207
1966-03-13,0.0
1966-03-14,0.0
1966-03-15,0.0
1966-03-16,0.0
1966-03-17,0.0
1966-03-18,0.0
1966-03-19,0.0
1966-03-20,0.0
1966-03-21,0.0
1966-03-22,0.0
1966-03-23,0.0
1966-03-24,0.0
1966-03-25,0.0
1966-03-26,0.0
1966-03-27,0.0
1966-03-28,0.0
1966-03-29,0.0
1966-03-30,0.0
1966-03-31,0.0
1966-04-01,0.0
1966-04-02,0.0
1966-04-03,0.0
1966-04-04,0.0
1966-04-05,0.0
1966-04-06,0.0
1966-04-07,0.0
1966-04-08,0.0
1966-04-09,0.0
1966-04-10,0.0
1966-04-11,0.0
1966-04-12,0.0
1966-04-13,0.0
1966-04-14,0.0
1966-04-15,0.0
1966-04-16,0.0
1966-04-17,0.0
1966-04-18,0.0
1966-04-19,0.0
1966-04-20,0.0
1966-04-21,0.0
1966-04-22,0.0
1966-04-23,0.0
1966-04-24,0.0
1966-04-25,0.0
1966-04-26,0.0
1966-04-27,0.0
1966-04-28,19.83471
1966-04-29,61.4876
1966-04-30,105.12397
1966-05-01,119.00826
1966-05-02,198.34711
1966-05-03,198.34711
1966-05-04,281.65289
1966-05-05,366.94215
1966-05-06,656.52893
1966-05-07,922.31405
1966-05-08,1090.90909
1966-05-09,1061.15702
1966-05-10,1090.90909
1966-05-11,924.29752
1966-05-12,690.24793
1966-05-13,694.21488
1966-05-14,694.21488
1966-05-15,694.21488
1966-05-16,587.10744
1966-05-17,495.86777
1966-05-18,686.28099
1966-05-19,882.64463
1966-05-20,1156.36364
1966-05-21,1190.08264
1966-05-22,991.73554
1966-05-23,991.73554
1966-05-24,1090.90909
1966-05-25,1029.42149
1966-05-26,967.93388
1966-05-27,793.38843
1966-05-28,793.38843
1966-05-29,694.21488
1966-05-30,743.80165
1966-05-31,1124.6281
1966-06-01,1090.90909
1966-06-02,1090.90909
1966-06-03,1090.90909
1966-06-04,1090.90909
1966-06-05,942.14876
1966-06-06,579.17355
1966-06-07,545.45455
1966-06-08,545.45455
1966-06-09,545.45455
1966-06-10,507.7686
1966-06-11,495.86777
1966-06-12,495.86777
1966-06-13,485.95041
1966-06-14,485.95041
1966-06-15,485.95041
1966-06-16,485.95041
1966-06-17,485.95041
1966-06-18,485.95041
1966-06-19,485.95041
1966-06-20,485.95041
1966-06-21,505.78512
1966-06-22,505.78512
1966-06-23,505.78512
1966-06-24,505.78512
1966-06-25,505.78512
1966-06-26,505.78512
1966-06-27,505.78512
1966-06-28,505.78512
1966-06-29,485.95041
1966-06-30,485.95041
1966-07-01,485.95041
1966-07-02,485.95041
1966-07-03,485.95041
1966-07-04,485.95041
1966-07-05,485.95041
1966-07-06,485.95041
1966-07-07,485.95041
1966-07-08,485.95041
1966-07-09,485.95041
1966-07-10,485.95041
1966-07-11,485.95041
1966-07-12,485.95041
1966-07-13,466.1157
1966-07-14,466.1157
1966-07-15,446.28099
1966-07-16,446.28099
1966-07-17,426.44628
1966-07-18,426.44628
1966-07-19,426.44628
1966-07-20,426.44628
1966-07-21,420.49587
1966-07-22,416.52893
1966-07-23,416.52893
1966-07-24,416.52893
1966-07-25,382.80992
1966-07-26,376.8595
1966-07-27,376.8595
1966-07-28,376.8595
1966-07-29,357.02479
1966-07-30,345.12397
1966-07-31,317.35537
1966-08-01,317.35537
1966-08-02,277.68595
1966-08-03,126.94215
1966-08-04,119.00826
1966-08-05,148.76033
1966-08-06,158.67769
1966-08-07,158.67769
1966-08-08,174.54545
1966-08-09,178.5124
1966-08-10,178.5124
1966-08-11,178.5124
1966-08-12,198.34711
1966-08-13,198.34711
1966-08-14,198.34711
1966-08-15,198.34711
1966-08-16,198.34711
1966-08-17,198.34711
1966-08-18,208.26446
1966-08-19,208.26446
1966-08-20,208.26446
1966-08-21,208.26446
1966-08-22,208.26446
1966-08-23,208.26446
1966-08-24,218.18182
1966-08-25,218.18182
1966-08-26,218.18182
1966-08-27,218.18182
1966-08-28,218.18182
1966-08-29,257.85124
1966-08-30,257.85124
1966-08-31,267.7686
1966-09-01,267.7686
1966-09-02,267.7686
1966-09-03,267.7686
1966-09-04,267.7686
1966-09-05,267.7686
1966-09-06,267.7686
1966-09-07,267.7686
1966-09-08,267.7686
1966-09-09,267.7686
1966-09-10,267.7686
1966-09-11,267.7686
1966-09-12,247.93388
1966-09-13,208.26446
1966-09-14,182.47934
1966-09-15,178.5124
1966-09-16,138.84298
1966-09-17,138.84298
1966-09-18,138.84298
1966-09-19,138.84298
1966-09-20,138.84298
1966-09-21,138.84298
1966-09-22,138.84298
1966-09-23,138.84298
1966-09-24,138.84298
1966-09-25,138.84298
1966-09-26,138.84298
1966-09-27,148.76033
1966-09-28,148.76033
1966-09-29,148.76033
1966-09-30,158.67769
1966-10-01,158.67769
1966-10-02,158.67769
1966-10-03,158.67769
1966-10-04,158.67769
1966-10-05,158.67769
1966-10-06,158.67769
1966-10-07,158.67769
1966-10-08,158.67769
1966-10-09,158.67769
1966-10-10,158.67769
1966-10-11,158.67769
1966-10-12,158.67769
1966-10-13,158.67769
1966-10-14,158.67769
1966-10-15,158.67769
1966-10-16,158.67769
1966-10-17,158.67769
1966-10-18,158.67769
1966-10-19,158.67769
1966-10-20,158.67769
1966-10-21,168.59504
1966-10-22,168.59504
1966-10-23,168.59504
1966-10-24,152.72727
1966-10-25,140.82645
1966-10-26,138.84298
1966-10-27,138.84298
1966-10-28,138.84298
1966-10-29,35.70248
1966-10-30,29.75207
1966-10-31,27.7686
1966-11-01,27.7686
1966-11-02,27.7686
1966-11-03,27.7686
1966-11-04,17.85124
1966-11-05,17.85124
1966-11-06,17.85124
1966-11-07,17.85124
1966-11-08,17.85124
1966-11-09,17.85124
1966-11-10,17.85124
1966-11-11,17.85124
1966-11-12,17.85124
1966-11-13,17.85124
1966-11-14,17.85124
1966-11-15,17.85124
1966-11-16,17.85124
1966-11-17,17.85124
1966-11-18,17.85124
1966-11-19,17.85124
1966-11-20,17.85124
1966-11-21,17.85124
1966-11-22,17.85124
1966-11-23,17.85124
1966-11-24,17.85124
1966-11-25,17.85124
1966-11-26,17.85124
1966-11-27,17.85124
1966-11-28,17.85124
1966-11-29,17.85124
1966-11-30,79.33884
1966-12-01,79.33884
1966-12-02,79.33884
1966-12-03,79.33884
1966-12-04,79.33884
1966-12-05,79.33884
1966-12-06,17.85124
1966-12-07,17.85124
1966-12-08,17.85124
1966-12-09,17.85124
1966-12-10,17.85124
1966-12-11,17.85124
1966-12-12,17.85124
1966-12-13,17.85124
1966-12-14,17.85124
1966-12-15,17.85124
1966-12-16,17.85124
1966-12-17,17.85124
1966-12-18,17.85124
1966-12-19,17.85124
1966-12-20,17.85124
1966-12-21,17.85124
1966-12-22,17.85124
1966-12-23,17.85124
1966-12-24,17.85124
1966-12-25,17.85124
1966-12-26,17.85124
1966-12-27,17.85124
1966-12-28,17.85124
1966-12-29,17.85124
1966-12-30,17.85124
1966-12-31,17.85124
1967-01-01,17.85124
1967-01-02,17.85124
1967-01-03,17.85124
1967-01-04,17.85124
1967-01-05,17.85124
1967-01-06,17.85124
1967-01-07,17.85124
1967-01-08,17.85124
1967-01-09,17.85124
1967-01-10,17.85124
1967-01-11,17.85124
1967-01-12,17.85124
1967-01-13,17.85124
1967-01-14,17.85124
1967-01-15,17.85124
1967-01-16,17.85124
1967-01-17,17.85124
1967-01-18,17.85124
1967-01-19,17.85124
1967-01-20,17.85124
1967-01-21,17.85124
1967-01-22,17.85124
1967-01-23,17.85124
1967-01-24,17.85124
1967-01-25,17.85124
1967-01-26,17.85124
1967-01-27,17.85124
1967-01-28,17.85124
1967-01-29,17.85124
1967-01-30,17.85124
1967-01-31,17.85124
1967-02-01,17.85124
1967-02-02,17.85124
1967-02-03,17.85124
1967-02-04,17.85124
1967-02-05,17.85124
1967-02-06,17.85124
1967-02-07,17.85124
1967-02-08,17.85124
1967-02-09,17.85124
1967-02-10,17.85124
1967-02-11,17.85124
1967-02-12,17.85124
1967-02-13,17.85124
1967-02-14,17.85124
1967-02-15,17.85124
1967-02-16,17.85124
1967-02-17,17.85124
1967-02-18,17.85124
1967-02-19,17.85124
1967-02-20,17.85124
1967-02-21,17.85124
1967-02-22,17.85124
1967-02-23,17.85124
1967-02-24,17.85124
1967-02-25,17.85124
1967-02-26,17.85124
1967-02-27,17.85124
1967-02-28,17.85124
1967-03-01,17.85124
1967-03-02,17.85124
1967-03-03,17.85124
1967-03-04,13.8843
1967-03-05,13.8843
1967-03-06,13.8843
1967-03-07,13.8843
1967-03-08,13.8843
1967-03-09,13.8843
1967-03-10,13.8843
1967-03-11,13.8843
1967-03-12,13.8843
1967-03-13,13.8843
1967-03-14,13.8843
1967-03-15,13.8843
1967-03-16,13.8843
1967-03-17,13.8843
1967-03-18,13.8843
1967-03-19,13.8843
1967-03-20,13.8843
1967-03-21,9.91736
1967-03-22,9.91736
1967-03-23,9.91736
1967-03-24,5.95041
1967-03-25,5.95041
1967-03-26,5.95041
1967-03-27,5.95041
1967-03-28,5.95041
1967-03-29,5.95041
1967-03-30,5.95041
1967-03-31,5.95041
1967-04-01,5.95041